Flag for Tanzania

Past Weather in Dar es Salaam, Tanzania — Yesterday and Last 2 Weeks

Now
77 °F

Passing clouds.


Feels Like: 79 °F
Forecast: 85 / 73 °F
Wind: 8 mph from Southeast

Location: Dar Es Salaam Airport

Current Time: Jul 12, 2020 at 8:35:43 pm

Latest Report: Jul 12, 2020 at 7:00 pm


Visibility: N/A

Pressure: 29.95 "Hg

Humidity: 79%

Dew Point: 70 °F

Location of Dar es SalaamLocation

Past Weather in Dar es Salaam — Graph

°F

Dar es Salaam Temperature Yesterday

Maximum temperature yesterday: 84 °F (at 1:00 pm)
Minimum temperature yesterday: 68 °F (at 5:00 am)
Average temperature yesterday: 77 °F

High & Low Weather Summary for the Past Weeks

 TemperatureHumidityPressure
High90 °F (Jun 29, 2:00 pm)100% (Jun 29, 5:00 am)30.07 "Hg (Jun 29, 5:00 am)
Low68 °F (Jul 3, 5:00 am)40% (Jul 2, 5:00 pm)29.86 "Hg (Jul 12, 1:00 pm)
Average77 °F76%29.99 "Hg
* Reported Jun 27 7:00 pm — Jul 12 7:00 pm, Dar es Salaam. Weather by CustomWeather, © 2020

Note: Actual official high and low records may vary slightly from our data, if they occured in-between our weather recording intervals... More about our weather records

Dar es Salaam Weather History for the Previous 24 Hours

Scroll right to see more
 ConditionsComfort  
Time TempWeatherWind HumidityBarometerVisibility
7:00 pm
Sun, Jul 12
77 °FPassing clouds.8 mph79%29.95 "HgN/A
6:00 pm81 °FPassing clouds.8 mph66%29.95 "HgN/A
5:00 pm84 °FPassing clouds.12 mph55%29.95 "HgN/A
4:00 pm86 °FPassing clouds.10 mph52%29.95 "HgN/A
3:00 pm86 °FScattered clouds.9 mph52%29.95 "HgN/A
2:00 pm86 °FScattered clouds.10 mph52%29.95 "HgN/A
1:00 pm86 °FPartly sunny.9 mph52%29.86 "HgN/A
12:00 pm84 °FPartly sunny.8 mph58%30.01 "HgN/A
11:00 am82 °FPartly sunny.9 mph66%30.04 "HgN/A
10:00 am79 °FScattered clouds.8 mph79%30.04 "HgN/A
9:00 am77 °FScattered clouds.6 mph83%30.04 "HgN/A
8:00 am73 °FScattered clouds.3 mph94%29.92 "HgN/A
7:00 am70 °FPassing clouds.No wind94%30.01 "HgN/A
6:00 am70 °FPassing clouds.No wind94%30.01 "HgN/A
3:00 am72 °FPassing clouds.3 mph94%29.98 "HgN/A
2:00 am72 °FPassing clouds.5 mph94%29.98 "HgN/A
1:00 am72 °FPassing clouds.6 mph94%30.01 "HgN/A
12:00 am72 °FPassing clouds.5 mph94%30.01 "HgN/A
11:00 pm
Sat, Jul 11
73 °FPassing clouds.No wind89%30.01 "HgN/A
10:00 pm75 °FPassing clouds.No wind83%30.04 "HgN/A
9:00 pm75 °FPassing clouds.No wind83%30.04 "HgN/A
8:00 pm75 °FPassing clouds.No wind83%30.01 "HgN/A
Weather by CustomWeather, © 2020

See weather overview